Location: Boerhaar
(52.3751°N, 6.1506°E)
Time: 10:51:33
(UTC+00:00)

Daily predictions for brighter satellites

Satellite Brightness Start Highest point End
(mag) Time Altitude Azimuth Time Altitude Azimuth Time Altitude Azimuth
ADEOS 4.2 18:53:55 10° SE 18:58:41 38° ENE 19:03:29 10° N
Feng Yun 1-1 Rocket 4.5 18:54:38 10° SE 19:00:03 53° ENE 19:05:22 10° N
SL-16 R/B 2.4 18:54:58 10° SSW 19:00:39 81° WNW 19:06:22 10° NNE
Terra 2.5 18:57:16 10° SE 19:01:33 37° ENE 19:05:52 10° N
ATLAS 5 CENTAUR R/B 2.7 18:58:56 10° W 19:01:41 30° NNW 19:04:43 10° NE
CSL-04 Debris 4.2 18:58:49 10° SSE 19:04:09 75° ENE 19:09:33 10° NNW
Meteor 1-22 Rocket 4.3 18:59:45 10° S 19:05:24 82° E 19:11:19 10° NNE
Cosmos 1898 Rocket 3.7 19:01:00 10° S 19:06:01 48° ESE 19:11:00 10° NE
CZ-4 R/B 1.3 19:02:35 10° SSE 19:06:20 61° ENE 19:10:04 10° N
Resurs 01 Rocket 3.5 19:04:31 10° SSW 19:08:29 33° W 19:12:28 10° NNW
Okean O Rocket 2.9 19:07:10 10° ESE 19:10:44 25° ENE 19:14:16 10° N
Meteor 1-24 Rocket 3.9 19:07:32 10° NNW 19:12:57 77° W 19:18:32 10° S
Cosmos 1538 Rocket 4.5 19:08:19 10° NNW 19:13:25 62° WSW 19:18:29 10° S
Cosmos 2333 4.2 19:09:56 10° SSW 19:15:26 63° ESE 19:20:59 10° NE
Cosmos 372 Rocket 4.0 19:11:37 10° SSW 19:16:49 74° ESE 19:22:03 10° NNE
Cosmos 1680 Rocket 3.7 19:11:51 10° NNW 19:17:00 56° ENE 19:22:06 10° SE
Cosmos 2219 Rocket 2.3 19:15:54 10° S 19:21:18 55° ESE 19:26:46 10° NE
SPOT 5 3.1 19:17:03 10° S 19:21:47 69° WSW 19:26:20 10° NNW
CZ-4B R/B 3.9 19:20:29 10° S 19:24:04 71° WSW 19:27:47 10° NNW
Cosmos 2074 Rocket 4.0 19:18:26 10° S 19:24:40 88° E 19:30:58 10° N
Meteor 1-31 Rocket 2.8 19:23:13 10° S 19:26:43 68° WSW 19:30:15 10° NNW
Cosmos 1937 Rocket 3.6 19:22:24 10° S 19:27:33 54° ESE 19:32:42 10° NNE
SL-24 R/B - RUBIN 2 3.6 19:26:53 10° NW 19:31:17 81° NE 19:35:18 13° SE
Cosmos 923 Rocket 4.1 19:27:40 10° NNW 19:33:02 88° WSW 19:38:19 10° SSE
Cosmos 2369 Rocket 4.3 19:30:21 10° NNW 19:33:33 15° NNE 19:36:45 10° ENE
USA 234 3.2 19:27:47 10° ENE 19:34:21 76° SSE 19:40:55 10° SW
Cosmos 2112 Rocket 4.1 19:29:23 10° NNW 19:34:36 63° ENE 19:39:17 13° SE
USA 186 2.5 19:34:28 17° E 19:34:51 17° ENE 19:36:25 10° NNE
NOSS 2-3 (E) 4.1 19:31:52 10° NW 19:36:41 89° NE 19:42:20 14° SE
SL-8 Rocket 4.5 19:31:20 10° SSE 19:37:02 39° E 19:42:49 10° NNE
USA 238 DEB 4.3 19:31:02 10° NW 19:38:00 55° NNE 19:44:50 13° ESE
USA 238 4.3 19:31:12 10° NW 19:38:09 54° NNE 19:45:00 13° ESE
COSMOS 2428 3.5 19:34:01 10° SSE 19:38:49 29° ESE 19:43:39 10° NE
NOSS 2-3 (C) 4.1 19:35:26 10° NW 19:40:07 77° NE 19:45:27 15° SE
Cosmos 1953 3.3 19:37:32 10° SSW 19:41:00 44° WNW 19:44:29 10° N
PAYLOAD B 4.3 19:35:36 10° SSE 19:41:06 86° WSW 19:46:39 10° NNW
Meteor 1-15 Rocket 4.4 19:35:43 10° SSW 19:41:16 76° WNW 19:46:54 10° N
CZ-4B R/B 3.2 19:36:05 10° SSE 19:41:37 81° ENE 19:47:17 10° NNW
MetOp-B 4.1 19:36:39 10° SSE 19:42:01 82° ENE 19:47:25 10° NNW
CZ-4B DEB 4.4 19:36:49 10° S 19:42:16 76° WSW 19:47:47 10° NNW
CSL-04 Rocket 4.5 19:37:16 10° S 19:42:40 55° W 19:48:09 10° NNW
Cosmos 2278 Rocket 2.7 19:38:07 10° NNW 19:43:36 46° NE 19:47:49 16° ESE
Cosmos 2366 rocket 4.4 19:41:17 10° SSE 19:46:59 41° E 19:52:42 10° NNE
NOSS 3-2 (C) 4.2 19:41:27 10° NW 19:48:33 75° SW 19:56:22 13° SSE
Cosmos 1610 Rocket 4.5 19:43:22 10° S 19:49:40 84° E 19:55:57 10° NNE
Ariane Rocket 4.2 19:46:48 16° ESE 19:49:47 27° ENE 19:53:58 10° N
Cosmos 2333 Rocket 3.3 19:44:36 10° SW 19:50:05 48° NW 19:55:35 10° NNE
Cosmos 1703 Rocket 4.0 19:48:52 10° NNW 19:53:10 62° W 19:57:23 10° S
Geosat 3.9 19:48:55 10° NE 19:53:56 73° ESE 19:58:55 10° SSW
BREEZE-M DEB (TANK) 2.2 19:54:10 10° WSW 19:56:38 55° S 19:59:33 19° ESE
Spot 2 Rocket 3.5 19:53:56 15° SSE 19:57:59 64° ENE 20:02:58 10° N
Cosmos 1470 Rocket 4.3 19:54:12 10° SSW 19:58:30 55° WNW 20:02:48 10° N
NOSS 2-3 (D) 4.3 19:54:08 10° NW 19:58:59 73° SW 20:03:54 17° SE
Lacrosse 5 rocket 1.3 19:56:54 10° SSW 19:59:49 33° SE 20:00:41 28° ESE
CZ-2C R/B 3.8 20:00:39 18° ENE 20:01:00 18° ENE 20:03:06 10° NNE
ARIANE 6 FM1 Upper Stage 2.6 19:57:06 10° SW 20:01:13 84° NW 20:05:16 10° NE
ERS-1 Rocket 3.4 19:58:45 10° S 20:03:42 63° WSW 20:08:41 10° NNW
Cosmos 1933 Rocket 3.5 20:01:30 10° S 20:05:53 86° E 20:10:18 10° NNE
Cosmos 1943 Rocket 2.2 20:03:35 10° NNW 20:09:18 75° ENE 20:12:59 23° SE
Helios 1A Rocket 3.7 20:07:17 10° N 20:10:22 40° WNW 20:13:24 10° SW
YAOGAN 11 4.2 20:06:45 10° NNE 20:10:53 50° E 20:13:55 17° S
Cosmos 2218 Rocket 4.0 20:06:19 10° S 20:12:18 57° E 20:18:18 10° NNE
Meteor 1-11 4.4 20:07:58 10° N 20:13:26 52° ENE 20:16:33 24° SE
In-Cosmos 22 Rocket 4.2 20:09:03 10° NNW 20:14:26 79° W 20:19:02 14° S
Meteor 1-12 Rocket 4.5 20:09:26 10° SSW 20:15:26 81° WNW 20:21:30 10° NNE
USA 59 Rocket 0.7 20:12:59 10° NNW 20:15:46 30° NNE 20:17:17 21° ENE
MOS 1-B 4.3 20:14:20 16° SSE 20:19:00 89° WSW 20:24:50 10° NNW
Cosmos 1733 Rocket 3.6 20:18:21 29° SE 20:19:41 37° E 20:23:44 10° NNE
SeaSat 1 3.6 20:19:54 19° E 20:22:30 31° NE 20:26:48 10° NNW
NOSS 3-4 (A) 4.2 20:23:14 24° ESE 20:23:14 24° ESE 20:27:12 10° ENE
Cosmos 494 Rocket 4.3 20:17:37 10° NNW 20:22:43 62° WSW 20:26:29 18° S
CZ-4B R/B 3.6 20:20:21 27° SE 20:22:44 53° ENE 20:27:24 10° N
NOSS 3-4 (C) 4.2 20:23:46 24° ESE 20:23:46 24° ESE 20:27:43 10° ENE
Okean-O 2.6 20:20:35 22° SSE 20:23:26 83° WSW 20:27:51 10° NNW
IRS-1C Rocket 4.5 20:20:58 26° SE 20:23:36 49° ENE 20:28:41 10° N
ATLAS 3B R/B 3.8 20:18:09 10° WSW 20:25:46 54° NNW 20:33:30 10° NE
Cosmos 1821 Rocket 4.1 20:22:24 19° SSE 20:26:47 54° E 20:32:55 10° NNE
Cosmos 1048 Rocket 3.9 20:22:04 10° NNW 20:27:13 80° ENE 20:29:51 29° SSE
Cosmos 2360 Rocket 3.6 20:23:41 10° WSW 20:28:59 41° NW 20:34:20 10° NNE
Timation 2 Rocket 4.0 20:26:27 10° NNW 20:32:42 83° NE 20:36:19 28° SE
NOSS 2-1 (E) 4.3 20:31:30 10° NNW 20:34:19 29° NNE 20:35:21 24° ENE
Cosmos 1869 Rocket 3.8 20:31:31 10° SSW 20:35:52 68° WNW 20:40:18 10° N
NOSS 2-1 (C) 4.1 20:33:12 10° NNW 20:36:03 32° NE 20:36:58 27° ENE
Cosmos 2322 Rocket 3.9 20:31:59 10° WSW 20:37:06 35° NW 20:42:14 10° NNE
Aureole 3 3.5 20:34:17 10° N 20:38:16 71° ENE 20:40:03 37° SSE
Terra 3.2 20:34:50 10° SSW 20:39:06 35° W 20:43:25 10° NNW
Meteor 2-21 4.4 20:33:00 10° N 20:39:09 82° E 20:42:49 26° SSE
CZ-4 R/B 4.0 20:38:31 10° SW 20:40:45 15° W 20:42:57 10° NW
NOSS 2-1 (D) 3.8 20:38:51 10° NW 20:41:49 39° NE 20:42:33 34° ENE
Cosmos 2242 Rocket 3.5 20:40:02 10° N 20:44:34 88° WSW 20:46:21 36° S
ATLAS 5 CENTAUR R/B 3.9 20:42:46 10° NW 20:44:47 15° N 20:46:58 10° NNE
SL-08 R/B 3.9 20:41:48 10° N 20:46:37 61° WNW 20:51:26 10° SSW
Okean O Rocket 2.4 20:43:57 20° SSW 20:46:41 48° W 20:50:55 10° NNW
Cosmos 1025 Rocket 3.3 20:44:39 10° N 20:48:46 48° ENE 20:49:24 44° ESE
Cosmos 2237 Rocket 2.6 20:47:31 35° SE 20:48:52 41° ESE 20:54:10 10° NE
Cosmos 1980 4.0 20:47:57 34° SSE 20:49:40 44° ESE 20:55:00 10° NE
Cosmos 1125 Rocket 4.1 20:51:20 35° ESE 20:51:29 35° ESE 20:56:13 10° NE
CZ-4B R/B 2.6 20:51:35 53° S 20:52:19 74° WSW 20:55:52 10° NNW
Cosmos 2292 Rocket 4.1 20:46:39 10° N 20:52:35 60° ENE 20:54:03 42° SE
Cosmos 2322 3.7 20:47:04 10° SSW 20:52:48 85° WNW 20:58:34 10° NNE
ASTEX 1 3.3 20:50:47 33° S 20:53:02 87° W 20:57:59 10° N
Cosmos 2341 Rocket 4.3 20:48:31 10° SSW 20:54:44 69° WNW 21:01:03 10° N
Cosmos 1400 Rocket 2.8 21:03:02 53° NE 21:03:02 53° NE 21:06:05 10° NNE
USA 186 4.1 21:04:43 12° W 21:04:43 12° W 21:05:25 10° WNW
SPOT 3 Rocket 3.7 21:02:11 35° S 21:04:25 72° WSW 21:09:38 10° NNW
Cosmos 2219 Rocket 3.8 21:00:23 10° WSW 21:05:30 36° NW 21:10:40 10° NNE
Meteor 2-21 Rocket 4.4 21:06:02 10° NNW 21:12:10 83° W 21:14:50 36° S
USA 234 3.6 21:10:52 10° ENE 21:17:21 66° NNW 21:23:50 10° W
USA 245 4.4 21:17:15 34° SW 21:18:23 42° W 21:22:49 10° NNW
Cosmos 2369 Rocket 3.0 21:13:55 10° NNW 21:19:12 40° NE 21:20:57 31° E
Cosmos 1674 Rocket 3.5 21:15:04 10° NNW 21:19:23 76° W 21:19:57 63° SSW
Cosmos 1908 Rocket 4.0 21:22:14 45° ENE 21:22:14 45° ENE 21:25:52 10° NNE
COSMOS 2428 3.1 21:16:59 10° SW 21:22:41 63° NW 21:28:24 10° NNE
Helios 1B rocket 3.4 21:23:49 30° NE 21:23:49 30° NE 21:26:16 10° N
Cosmos 1727 Rocket 4.3 21:19:16 10° NNW 21:25:35 66° W 21:28:33 33° SSW
NOSS 0 Rocket 3.9 21:19:21 10° SSW 21:25:37 86° WNW 21:31:54 10° NNE
Cosmos 2278 Rocket 3.1 21:22:22 10° NW 21:27:39 41° WSW 21:29:39 30° SSW
Ariane Rocket 3.4 21:26:52 41° SSW 21:28:22 57° WSW 21:33:21 10° NNW
USA 238 DEB 4.1 21:22:02 10° NW 21:29:14 62° SW 21:32:16 38° S
USA 238 4.1 21:22:12 10° NW 21:29:25 62° SW 21:32:26 39° S
Cosmos 2221 Rocket 3.4 21:25:37 10° N 21:30:02 85° ENE 21:30:11 83° SE
CZ-2C R/B 4.1 21:32:30 26° WNW 21:32:30 26° WNW 21:34:27 10° NW
Cosmos 1346 Rocket 3.0 21:28:27 10° NNW 21:31:34 60° NW 21:31:34 60° NW
Helios 1A 4.2 21:30:35 10° NNE 21:32:54 28° NE 21:32:54 28° NE
Lacrosse 5 rocket 3.1 21:33:12 10° W 21:34:04 17° W 21:34:04 17° W
Cosmos 2058 4.4 21:39:12 10° N 21:41:48 26° NE 21:41:48 26° NE
DNEPR-1 R/B 3.7 21:45:57 63° NE 21:45:57 63° NE 21:49:47 10° NE
Cosmos 1656 Rocket 3.5 21:44:12 10° NNW 21:49:38 79° WSW 21:50:17 68° S
Cosmos 1943 Rocket 3.9 21:48:05 10° NW 21:52:28 23° WSW 21:54:29 19° SW
SJ 16-02 3.8 21:53:42 10° NNE 21:55:42 13° NE 21:56:48 12° ENE
SL-16 R/B 3.0 21:58:05 36° E 21:58:05 36° E 22:02:09 10° NE
SeaSat 1 2.5 21:59:30 62° SW 21:59:38 62° WSW 22:04:31 10° NW
Cosmos 2123 Rocket 4.2 21:55:59 10° NNW 22:02:08 63° W 22:03:50 46° SSW
USA 59 Rocket 1.4 22:01:13 10° WNW 22:02:49 25° WNW 22:02:49 25° WNW
CZ-2C R/B 4.5 22:02:52 18° ENE 22:04:28 20° NE 22:08:24 10° N
Cosmos 1934 Rocket 4.0 22:03:44 53° SSW 22:05:21 83° W 22:11:40 10° N
Cosmos 1140 Rocket 3.9 22:03:27 10° NNW 22:08:30 49° ENE 22:08:44 49° ENE
Cosmos 921 Rocket 4.3 22:04:31 10° N 22:08:19 32° NE 22:08:19 32° NE
Cosmos 2346 Rocket 4.3 22:03:06 10° N 22:09:14 73° ENE 22:09:59 65° SE
NOSS 3-4 (A) 3.2 22:10:28 36° WSW 22:12:48 78° NW 22:18:52 10° NE
NOSS 3-4 (C) 3.2 22:11:02 37° WSW 22:13:18 79° NW 22:19:23 10° NE
Cosmos 1300 Rocket 4.1 22:17:13 56° N 22:17:13 56° N 22:20:39 10° N
ATLAS 3B R/B 4.4 22:11:01 10° WNW 22:18:11 36° N 22:25:18 10° ENE
Cosmos 2285 Rocket 3.9 22:19:16 68° SE 22:19:41 70° ESE 22:26:01 10° NNE
Cosmos 967 Rocket 4.4 22:19:16 10° NW 22:25:48 81° NE 22:26:46 66° ESE
NOSS 3-1 (C) 3.9 22:19:43 10° NW 22:26:24 81° NE 22:28:44 50° ESE
Cosmos 1535 Rocket 4.3 22:26:51 72° SSW 22:27:32 89° W 22:33:42 10° N
ATLAS 5 CENTAUR R/B 3.6 22:25:16 10° NNW 22:28:05 20° NNE 22:29:34 17° NE
RESURS DK-1 3.8 22:30:06 33° NNE 22:30:06 33° NNE 22:32:28 10° NNE
ALOS 2 3.4 22:29:40 47° NNE 22:29:40 47° NNE 22:33:10 10° N
Cosmos 2237 Rocket 3.1 22:29:13 20° WSW 22:32:53 46° NW 22:38:24 10° NNE
Cosmos 1605 Rocket 3.8 22:32:45 74° SSW 22:33:22 87° WNW 22:39:31 10° N
Cosmos 1125 Rocket 4.4 22:31:27 31° WSW 22:33:23 44° NW 22:38:25 10° NNE
Cosmos 1269 Rocket 4.1 22:32:09 10° NNW 22:37:13 73° NE 22:37:13 73° NE
Cosmos 2297 3.6 22:31:43 10° NNW 22:37:29 79° WSW 22:37:29 79° WSW
ARIANE 5 R/B 3.3 22:40:11 52° N 22:40:11 52° N 22:43:31 10° NNW
Cosmos 1975 Rocket 3.9 22:38:02 10° NNW 22:41:32 46° NW 22:41:32 46° NW
COSMOS 2455 3.5 22:37:53 10° NW 22:43:45 49° NE 22:45:16 40° E
MetOp-A 4.4 22:51:08 53° NE 22:51:08 53° NE 22:55:36 10° N
Cosmos 2150 Rocket 4.1 22:54:10 71° NNW 22:54:10 71° NNW 22:59:02 10° NNE
Cosmos 2173 Rocket 4.2 22:55:45 54° E 22:55:45 54° E 23:01:34 10° NNE
CZ-2C R/B 4.4 22:52:32 10° NNE 22:55:50 28° ENE 22:55:50 28° ENE
USA 234 3.6 22:53:36 10° E 23:00:03 63° N 23:06:30 10° WNW
Cosmos 2100 Rocket 4.1 23:00:25 61° E 23:00:25 61° E 23:06:27 10° NNE
Cosmos 2251 Rocket 4.5 22:57:56 10° NNW 23:02:55 39° NE 23:03:27 37° ENE
Cosmos 371 Rocket 4.0 22:58:21 10° NNW 23:02:35 49° NE 23:02:35 49° NE
Cosmos 2369 Rocket 2.8 22:57:58 10° NW 23:02:43 46° W 23:02:43 46° W
NOSS 3-1 (A) 3.9 23:10:48 10° NW 23:17:33 80° NE 23:19:58 49° ESE
Cosmos 1943 3.5 23:21:35 57° ENE 23:21:35 57° ENE 23:26:22 10° NE
SJ 16-02 2.5 23:30:24 10° NNW 23:33:16 40° N 23:33:16 40° N
Cosmos 407 Rocket 3.9 23:30:13 10° NNW 23:34:21 55° NW 23:34:21 55° NW
Cosmos 1864 Rocket 4.4 23:39:22 79° ESE 23:39:32 80° E 23:45:53 10° NNE
ACS3 Solar Sail 3.3 23:35:07 10° NE 23:39:39 22° E 23:40:25 21° E
SL-16 R/B 2.9 23:39:53 42° W 23:40:56 46° NW 23:46:26 10° NNE
Cosmos 1802 Rocket 3.9 23:43:35 81° SE 23:43:49 83° E 23:50:11 10° NNE
CZ-2C R/B 2.7 23:44:18 81° N 23:44:18 81° N 23:49:35 10° NNW
Meteor 2-3 Rocket 3.9 23:40:43 10° NNW 23:45:50 64° WNW 23:45:50 64° WNW
Cosmos 1725 Rocket 3.9 23:48:08 81° SE 23:48:22 83° E 23:54:44 10° NNE
Cosmos 1818 4.2 23:45:06 10° NW 23:50:28 52° NE 23:51:37 44° ENE
